This is the latest recevied weather packets stored in our database for station/object IT9RID. If no packets are shown the sender has not sent any weather packets the latest 10 day(s).
| Time | Temp. | Humidity | Pressure | Rain* | Wind** | Luminosity | Snow |
|---|---|---|---|---|---|---|---|
| 1787893050 | 28.33° C | 39% | 1015.9 hPa | 0 mm | - | - | - |
| 1787892450 | 28.33° C | 39% | 1015.8 hPa | 0 mm | - | - | - |
| 1787891850 | 28.33° C | 38% | 1015.8 hPa | 0 mm | - | - | - |
| 1787891249 | 28.33° C | 38% | 1015.6 hPa | 0 mm | - | - | - |
| 1787890649 | 28.89° C | 37% | 1015.4 hPa | 0 mm | - | - | - |
| 1787890051 | 28.33° C | 37% | 1015.4 hPa | 0 mm | - | - | - |
| 1787889449 | 28.33° C | 37% | 1015.3 hPa | 0 mm | - | - | - |
| 1787888850 | 28.89° C | 36% | 1015.4 hPa | 0 mm | - | - | - |
| 1787888248 | 27.78° C | 38% | 1015.4 hPa | 0 mm | - | - | - |
| 1787887648 | 27.78° C | 38% | 1015.5 hPa | 0 mm | - | - | - |
| 1787887048 | 28.33° C | 38% | 1015.5 hPa | 0 mm | - | - | - |
| 1787886448 | 28.33° C | 37% | 1015.5 hPa | 0 mm | - | - | - |
| 1787885848 | 28.33° C | 38% | 1015.6 hPa | 0 mm | - | - | - |
| 1787885248 | 27.78° C | 39% | 1015.6 hPa | 0 mm | - | - | - |
| 1787884648 | 27.78° C | 39% | 1015.8 hPa | 0 mm | - | - | - |
| 1787884048 | 27.78° C | 39% | 1015.9 hPa | 0 mm | - | - | - |
| 1787883447 | 27.78° C | 41% | 1016 hPa | 0 mm | - | - | - |
| 1787882847 | 27.78° C | 40% | 1016.1 hPa | 0 mm | - | - | - |
| 1787882247 | 27.78° C | 41% | 1016.1 hPa | 0 mm | - | - | - |
| 1787881647 | 27.78° C | 41% | 1016.3 hPa | 0 mm | - | - | - |
| 1787881048 | 27.22° C | 42% | 1016.5 hPa | 0 mm | - | - | - |
| 1787880446 | 27.78° C | 41% | 1016.6 hPa | 0 mm | - | - | - |
| 1787879847 | 27.22° C | 42% | 1016.6 hPa | 0 mm | - | - | - |
| 1787879246 | 27.22° C | 44% | 1016.7 hPa | 0 mm | - | - | - |
| 1787878646 | 27.22° C | 49% | 1016.8 hPa | 0 mm | - | - | - |
* Rain latest hour (hover to see other rain measurements)
** Current wind speed in m/s (hover to see current wind gust speed)